Погода в Ярцево

Россия / Новгородская область     58°44′21″N   33°10′52″E
темп.,
°C
ветер,
м/с
пор.,
м/с
влажн.,
%
обл.,
%
осадки,
мм/ч
давл.,
гПа
погр.,
м
6 мая, чт
чт600:00+4юв269929 0.0 1003169
03:00+3вюв399893 0.0 1002227
06:00+6вюв51298100 1.3 998378
09:00+9юв4119595 3.4 995569
12:00+15ююв71474100 0.6 9911488
15:00+7зюз61194100 4.3 992663
18:00+6юз51194100 0.6 9951187
21:00+6юз51189100 1.2 9971039
7 мая, пт
пт700:00+5юз61293100 0.4 9991126
03:00+4юз51289100 0.7 10011007
06:00+4ююз51191100 0.1 10011049
09:00+5юз51089100 0.3 10031064
12:00+8юз6116785 0.3 10041520
15:00+10юз6105478 0.6 10051943
18:00+9юз576591 0.1 10061334
21:00+4ю258755 0.2 100782
8 мая, сб
сб800:00+4юв2787100 0.0 1006156
03:00+5вюв3793100 0.3 1004272
06:00+6в31098100 2.9 1001598
09:00+7юв41097100 4.1 1000664
12:00+9ю2791100 0.8 999533
15:00+8ю2596100 3.2 997272
18:00+7з1297100 6.9 996119
21:00+4сз61297100 14.6 997847
9 мая, вс
вс900:00+3сз81597100 11.9 9971215
03:00+2зсз81795100 16.1 10011139
06:00+2зсз7178597 0.1 10061215
09:00+6зсз613795 0.1 10091274
12:00+9зсз6114863 0.1 10132354
15:00+11зсз51037100 0.1 10162622
18:00+11зюз475136 0.0 10181921
21:00+5ююз3973100 0.0 1020175
10 мая, пн
пн1000:00+4ююз3127737 0.0 1021257
03:00+4ююз3118074 0.0 1022256
06:00+6ю3127697 0.0 1022416
09:00+7ю4147698 0.0 1023709
12:00+11ююз4106597 0.0 1023661
15:00+17юз585380 0.0 10231209
18:00+17ююз4959100 0.0 10231214
21:00+12ю31179100 0.0 1023317